Location: Earls Croome
(52.0667°N, 2.2000°W)
Time: 08:11:26
(UTC+00:00)

ISS - Visible Passes

Search period start: 18 September 2020 00:00
Search period end: 28 September 2020 00:00
Orbit: 419 x 420 km, 51.6° (Epoch: 18 September)

Date Brightness Start Highest point End Pass type
(mag) Time Alt. Az. Time Alt. Az. Time Alt. Az.
18 Sep -2.3 19:38:43 10° SSW 19:41:14 21° SSE 19:41:14 21° SSE visible
19 Sep -1.8 18:52:09 10° S 18:54:08 15° SE 18:56:06 10° ESE visible
19 Sep -2.5 20:27:07 10° SW 20:29:08 31° SW 20:29:08 31° SW visible
20 Sep -3.2 19:39:54 10° SW 19:43:04 38° SSE 19:43:52 32° ESE visible
20 Sep -0.9 21:16:19 10° W 21:16:51 14° W 21:16:51 14° W visible
21 Sep -2.6 18:52:49 10° SSW 18:55:46 28° SSE 18:58:29 11° E visible
21 Sep -3.0 20:28:56 10° WSW 20:31:27 46° WSW 20:31:27 46° WSW visible
22 Sep -3.7 19:41:34 10° WSW 19:44:54 63° SSE 19:45:57 39° E visible
22 Sep -0.8 21:18:17 10° W 21:18:55 15° W 21:18:55 15° W visible
23 Sep -3.4 18:54:14 10° SW 18:57:31 50° SSE 19:00:22 13° E visible
23 Sep -2.8 20:30:51 10° W 20:33:20 46° W 20:33:20 46° W visible
24 Sep -3.9 19:43:24 10° W 19:46:48 83° S 19:47:42 46° E visible
24 Sep -0.6 21:20:13 10° W 21:20:39 13° W 21:20:39 13° W visible
25 Sep -3.8 18:55:58 10° WSW 18:59:21 75° SSE 19:02:01 15° E visible
25 Sep -2.4 20:32:46 10° W 20:34:58 38° W 20:34:58 38° W visible
26 Sep -3.9 19:45:17 10° W 19:48:41 84° S 19:49:16 58° ESE visible
26 Sep -0.4 21:22:08 10° W 21:22:13 11° W 21:22:13 11° W visible
27 Sep -3.8 18:57:49 10° W 19:01:12 86° S 19:03:33 18° E visible
27 Sep -1.9 20:34:37 10° W 20:36:30 29° W 20:36:30 29° W visible
